User: anonymous   Login
Location: Newark
(49.7697°N, 2.7094°E)
Time: 19:24:42
(UTC+00:00)
Language:

DELFI C3 - Orbit

View from above orbital plane
View from above orbital plane
View from above satellite
View from above satellite

Ground track
Ground track

The orbit data is extracted from the following two-line orbital elements,

1 32789U 08021G   20101.17288523 +.00000823 +00000-0 +57989-4 0  9995
2 32789 097.4263 146.3402 0012101 181.9067 178.2117 15.07580367651527
Epoch (UTC): 10 April 2020 04:08:57
Eccentricity: 0.0012101
inclination: 97.4263°
perigee height: 535 km
apogee height: 552 km
right ascension of ascending node: 146.3402°
argument of perigee: 181.9067°
revolutions per day: 15.07580367
mean anomaly at epoch: 178.2117°
orbit number at epoch: 65152

The dashed part of the orbit path shows where the satellite is in the earth's shadow,  

DLR